• în România
  • Lista ţărilor
  • Pe 7 zile
  • Temperatura apei
  • Hartă satelitară
  • Meteo pe hartă
  • Widget-uri
  • user-avatar
    Intrare

    Meteo pe oră la Podem-Mihaylovka

    Astăzi, 25 Iunie, Luni

    Timp Temperatura Precipitaţii Vânt Presiune Umiditate
    00:00 +22°C° 0 mm 1 m/s 757 mmHg 83%
    01:00 +22°C° 0 mm 1 m/s 757 mmHg 84%
    02:00 +22°C° 0 mm 1 m/s 757 mmHg 86%
    03:00 +21°C° 0 mm 2 m/s 757 mmHg 88%
    04:00 +23°C° 0 mm 2 m/s 757 mmHg 84%
    05:00 +24°C° 0 mm 2 m/s 757 mmHg 81%
    06:00 +25°C° 0 mm 2 m/s 758 mmHg 77%
    07:00 +27°C° 0 mm 1 m/s 758 mmHg 70%
    08:00 +28°C° 0 mm 1 m/s 758 mmHg 64%
    09:00 +30°C° 0 mm 1 m/s 758 mmHg 56%
    10:00 +31°C° 0 mm 1 m/s 758 mmHg 53%
    11:00 +32°C° 0 mm 1 m/s 758 mmHg 50%
    12:00 +32°C° 0 mm 1 m/s 758 mmHg 47%
    13:00 +33°C° 0 mm 1 m/s 758 mmHg 45%
    14:00 +33°C° 0 mm 1 m/s 758 mmHg 44%
    15:00 +33°C° 0 mm 1 m/s 758 mmHg 43%
    16:00 +33°C° 0 mm 1 m/s 758 mmHg 46%
    17:00 +32°C° 0 mm 1 m/s 758 mmHg 50%
    18:00 +32°C° 0 mm 1 m/s 758 mmHg 54%
    19:00 +30°C° 0 mm 1 m/s 758 mmHg 57%
    20:00 +28°C° 0 mm 2 m/s 758 mmHg 61%
    21:00 +26°C° 0 mm 2 m/s 758 mmHg 64%
    22:00 +25°C° 0 mm 2 m/s 758 mmHg 65%
    23:00 +25°C° 0 mm 2 m/s 758 mmHg 66%

    Mâine, 26 Iunie, Marţi

    Timp Temperatura Precipitaţii Vânt Presiune Umiditate
    00:00 +24°C° 0 mm 2 m/s 758 mmHg 67%
    01:00 +24°C° 0 mm 1 m/s 758 mmHg 67%
    02:00 +23°C° 0 mm 1 m/s 758 mmHg 67%
    03:00 +23°C° 0 mm 1 m/s 758 mmHg 67%
    04:00 +24°C° 0 mm 1 m/s 758 mmHg 66%
    05:00 +23°C° 0 mm 0 m/s 758 mmHg 64%
    06:00 +24°C° 0 mm 0 m/s 758 mmHg 62%
    07:00 +26°C° 0 mm 0 m/s 758 mmHg 58%
    08:00 +29°C° 0 mm 1 m/s 758 mmHg 55%
    09:00 +31°C° 0 mm 1 m/s 758 mmHg 51%
    10:00 +31°C° 0 mm 1 m/s 758 mmHg 50%
    11:00 +32°C° 0 mm 1 m/s 758 mmHg 48%
    12:00 +33°C° 0 mm 1 m/s 758 mmHg 46%
    13:00 +34°C° 0 mm 2 m/s 758 mmHg 46%
    14:00 +34°C° 0 mm 2 m/s 758 mmHg 46%
    15:00 +34°C° 0 mm 3 m/s 757 mmHg 45%
    16:00 +34°C° 0 mm 3 m/s 757 mmHg 51%
    17:00 +33°C° 0 mm 3 m/s 757 mmHg 57%
    18:00 +31°C° 0 mm 3 m/s 757 mmHg 62%
    19:00 +29°C° 0 mm 3 m/s 757 mmHg 68%
    20:00 +27°C° 0 mm 3 m/s 757 mmHg 74%
    21:00 +26°C° 0 mm 3 m/s 758 mmHg 80%
    22:00 +25°C° 1 mm 3 m/s 757 mmHg 84%
    23:00 +24°C° 1 mm 2 m/s 757 mmHg 88%

    Poimâine, 27 Iunie, Miercuri

    Timp Temperatura Precipitaţii Vânt Presiune Umiditate
    00:00 +23°C° 1 mm 2 m/s 757 mmHg 91%
    01:00 +23°C° 0,2 mm 2 m/s 757 mmHg 92%
    02:00 +23°C° 0,2 mm 2 m/s 757 mmHg 92%
    03:00 +23°C° 0,2 mm 2 m/s 757 mmHg 92%
    04:00 +24°C° 0 mm 2 m/s 757 mmHg 90%
    05:00 +24°C° 0 mm 3 m/s 757 mmHg 88%
    06:00 +25°C° 0 mm 3 m/s 757 mmHg 86%
    07:00 +26°C° 0 mm 3 m/s 757 mmHg 79%
    08:00 +28°C° 0 mm 3 m/s 757 mmHg 73%
    09:00 +29°C° 0 mm 3 m/s 757 mmHg 66%
    10:00 +30°C° 0 mm 3 m/s 757 mmHg 62%
    11:00 +31°C° 0 mm 3 m/s 756 mmHg 58%
    12:00 +33°C° 0 mm 4 m/s 756 mmHg 53%
    13:00 +33°C° 0,2 mm 4 m/s 756 mmHg 54%
    14:00 +33°C° 0,2 mm 4 m/s 756 mmHg 54%
    15:00 +33°C° 0,2 mm 4 m/s 756 mmHg 55%
    16:00 +32°C° 0,1 mm 4 m/s 756 mmHg 60%
    17:00 +30°C° 0,1 mm 4 m/s 756 mmHg 64%
    18:00 +30°C° 0,1 mm 3 m/s 755 mmHg 69%
    19:00 +28°C° 0 mm 3 m/s 756 mmHg 74%
    20:00 +27°C° 0 mm 3 m/s 756 mmHg 79%
    21:00 +25°C° 0 mm 3 m/s 756 mmHg 83%
    22:00 +24°C° 0 mm 3 m/s 756 mmHg 86%
    23:00 +24°C° 0 mm 3 m/s 756 mmHg 88%

    28 Iunie, Joi

    Timp Temperatura Precipitaţii Vânt Presiune Umiditate
    00:00 +22°C° 0 mm 3 m/s 755 mmHg 90%
    01:00 +21°C° 0 mm 3 m/s 755 mmHg 91%
    02:00 +21°C° 0 mm 3 m/s 755 mmHg 92%
    03:00 +20°C° 0 mm 3 m/s 755 mmHg 93%
    04:00 +21°C° 0 mm 4 m/s 755 mmHg 90%
    05:00 +22°C° 0 mm 4 m/s 755 mmHg 87%
    06:00 +22°C° 0 mm 4 m/s 755 mmHg 85%
    07:00 +25°C° 0 mm 5 m/s 755 mmHg 79%
    08:00 +26°C° 0 mm 5 m/s 755 mmHg 73%
    09:00 +28°C° 0 mm 5 m/s 755 mmHg 68%
    10:00 +29°C° 0 mm 5 m/s 755 mmHg 64%
    11:00 +29°C° 0 mm 6 m/s 755 mmHg 60%
    12:00 +30°C° 0 mm 6 m/s 755 mmHg 56%
    13:00 +30°C° 0 mm 6 m/s 755 mmHg 54%
    14:00 +30°C° 0 mm 7 m/s 755 mmHg 53%
    15:00 +30°C° 0 mm 7 m/s 755 mmHg 51%
    16:00 +29°C° 0 mm 6 m/s 755 mmHg 56%
    17:00 +28°C° 0 mm 5 m/s 755 mmHg 60%
    18:00 +27°C° 0 mm 5 m/s 755 mmHg 64%
    19:00 +26°C° 0 mm 4 m/s 755 mmHg 67%
    20:00 +23°C° 0 mm 4 m/s 756 mmHg 70%
    21:00 +22°C° 0 mm 4 m/s 756 mmHg 74%
    22:00 +21°C° 0 mm 4 m/s 756 mmHg 75%
    23:00 +20°C° 0 mm 4 m/s 756 mmHg 76%

    29 Iunie, Vineri

    Timp Temperatura Precipitaţii Vânt Presiune Umiditate
    00:00 +20°C° 0 mm 4 m/s 755 mmHg 77%
    01:00 +19°C° 0 mm 3 m/s 756 mmHg 79%
    02:00 +18°C° 0 mm 3 m/s 756 mmHg 81%
    03:00 +18°C° 0 mm 3 m/s 756 mmHg 83%
    04:00 +19°C° 0 mm 3 m/s 756 mmHg 81%
    05:00 +20°C° 0 mm 4 m/s 756 mmHg 78%
    06:00 +21°C° 0 mm 4 m/s 756 mmHg 76%
    07:00 +22°C° 0 mm 4 m/s 756 mmHg 70%
    08:00 +25°C° 0 mm 4 m/s 756 mmHg 64%
    09:00 +27°C° 0 mm 4 m/s 756 mmHg 58%
    10:00 +28°C° 0 mm 4 m/s 755 mmHg 54%
    11:00 +28°C° 0 mm 4 m/s 755 mmHg 49%
    12:00 +29°C° 0 mm 4 m/s 755 mmHg 45%
    13:00 +29°C° 0 mm 4 m/s 755 mmHg 45%
    14:00 +29°C° 0 mm 4 m/s 755 mmHg 45%
    15:00 +29°C° 0 mm 4 m/s 755 mmHg 45%
    16:00 +28°C° 0 mm 4 m/s 755 mmHg 50%
    17:00 +27°C° 0 mm 3 m/s 755 mmHg 55%
    18:00 +27°C° 0 mm 3 m/s 755 mmHg 60%
    19:00 +25°C° 0 mm 3 m/s 755 mmHg 64%
    20:00 +23°C° 0 mm 2 m/s 755 mmHg 68%
    21:00 +20°C° 0 mm 2 m/s 755 mmHg 73%
    22:00 +20°C° 0 mm 2 m/s 755 mmHg 75%
    23:00 +19°C° 0 mm 2 m/s 755 mmHg 77%

    30 Iunie, Sâmbătă

    Timp Temperatura Precipitaţii Vânt Presiune Umiditate
    00:00 +19°C° 0 mm 1 m/s 755 mmHg 80%
    01:00 +19°C° 0 mm 1 m/s 754 mmHg 82%
    02:00 +18°C° 0 mm 1 m/s 754 mmHg 83%
    03:00 +18°C° 0 mm 1 m/s 754 mmHg 85%
    04:00 +19°C° 0 mm 1 m/s 754 mmHg 81%
    05:00 +20°C° 0 mm 1 m/s 754 mmHg 77%
    06:00 +21°C° 0 mm 1 m/s 754 mmHg 73%
    07:00 +23°C° 0 mm 1 m/s 754 mmHg 67%
    08:00 +24°C° 0 mm 1 m/s 754 mmHg 61%
    09:00 +26°C° 0 mm 1 m/s 754 mmHg 55%
    10:00 +26°C° 0 mm 1 m/s 754 mmHg 52%
    11:00 +27°C° 0 mm 1 m/s 753 mmHg 49%
    12:00 +28°C° 0 mm 1 m/s 753 mmHg 45%
    13:00 +29°C° 0 mm 2 m/s 753 mmHg 45%
    14:00 +29°C° 0 mm 2 m/s 752 mmHg 44%
    15:00 +29°C° 0 mm 2 m/s 752 mmHg 43%
    16:00 +29°C° 0 mm 2 m/s 752 mmHg 46%
    17:00 +29°C° 0 mm 1 m/s 751 mmHg 49%
    18:00 +28°C° 0 mm 1 m/s 751 mmHg 51%
    19:00 +27°C° 0 mm 2 m/s 751 mmHg 53%
    20:00 +25°C° 0 mm 3 m/s 750 mmHg 54%
    21:00 +22°C° 0 mm 4 m/s 750 mmHg 56%
    22:00 +22°C° 0 mm 5 m/s 749 mmHg 53%
    23:00 +22°C° 0 mm 5 m/s 749 mmHg 50%
    Arată mai mult